time_stamp(utc),avg(mph),gust(mph),direction(deg),12m_air_temp(f),sonic_u(cm/s),sonic_v(cm/s),sonic_w(cm/s),pressure,2m_air_temp(f),pyranometer(W/m^2)
"2020-02-24 00:04:35+00",10.4,11.4,,41.5,-188,-407,5,1020.65,40.7,0
"2020-02-24 00:09:35+00",10.3,12.3,,41.4,-170,-419,-5,1020.61,40.7,0
"2020-02-24 00:14:35+00",10.4,12.4,,41.3,-127,-418,1,1020.59,40.5,0
"2020-02-24 00:19:35+00",10.9,12.9,,41.2,-169,-448,5,1020.58,40.4,0
"2020-02-24 00:24:35+00",10.7,13.7,,41.4,-182,-435,-2,1020.57,40.4,0
"2020-02-24 00:29:35+00",10.3,12.3,,41.4,-174,-401,5,1020.6,40.4,0
"2020-02-24 00:34:35+00",11.3,13.3,,41.3,-203,-448,-11,1020.64,40.3,0
"2020-02-24 00:39:35+00",10.7,12.7,,41.3,-178,-431,-3,1020.58,40.3,0
"2020-02-24 00:44:35+00",11.4,13.4,,41.2,-214,-452,-4,1020.65,40.2,0
"2020-02-24 00:49:35+00",12.5,14.5,,41.3,-228,-483,-2,1020.64,40.3,0
"2020-02-24 00:54:35+00",10.4,13.4,,41.2,-186,-396,-1,1020.65,40.3,0
"2020-02-24 00:59:35+00",11.8,12.8,,41.3,-215,-471,-2,1020.64,40.3,0
"2020-02-24 01:04:35+00",12.1,14.1,,41.5,-215,-475,-1,1020.66,40.5,0
"2020-02-24 01:09:35+00",11.8,12.8,,41.6,-233,-456,8,1020.69,40.6,0
"2020-02-24 01:14:35+00",11.3,13.3,,41.6,-229,-439,4,1020.65,40.6,0
"2020-02-24 01:19:35+00",11.8,13.8,,41.7,-238,-461,4,1020.68,40.7,0
"2020-02-24 01:24:35+00",11.6,13.6,,41.8,-236,-445,2,1020.74,40.7,0
"2020-02-24 01:29:35+00",11.0,13.0,,41.7,-213,-424,2,1020.79,40.8,0
"2020-02-24 01:34:35+00",11.2,13.2,,41.8,-231,-437,5,1020.86,40.9,0
"2020-02-24 01:39:35+00",10.7,12.7,,41.8,-217,-417,-3,1020.74,40.8,0
"2020-02-24 01:44:35+00",10.1,12.1,,41.6,-185,-394,-3,1020.73,40.7,0
"2020-02-24 01:49:35+00",11.2,13.2,,41.6,-202,-433,1,1020.69,40.6,0
"2020-02-24 01:54:35+00",11.5,13.5,,41.7,-198,-456,-7,1020.64,40.7,0
"2020-02-24 01:59:35+00",8.8,10.8,,41.5,-113,-360,6,1020.59,40.6,0
"2020-02-24 02:04:35+00",8.4,10.4,,41.2,-109,-345,2,1020.66,40.3,0
"2020-02-24 02:09:35+00",9.3,11.3,,41.1,-127,-378,-3,1020.59,40.1,0
"2020-02-24 02:14:35+00",9.4,10.4,,41,-135,-380,-4,1020.6,39.9,0
"2020-02-24 02:19:35+00",9.2,11.2,,41,-123,-379,-4,1020.62,39.8,0
"2020-02-24 02:24:35+00",9.2,10.2,,40.9,-126,-372,-6,1020.59,39.7,0
"2020-02-24 02:29:35+00",8.5,10.5,,40.8,-118,-342,-4,1020.54,39.6,0
"2020-02-24 02:34:35+00",7.9,8.9,,40.7,-94,-315,-2,1020.54,39.6,0
"2020-02-24 02:39:35+00",8.6,10.6,,40.7,-111,-354,-6,1020.57,39.5,0
"2020-02-24 02:44:35+00",8.1,10.1,,40.8,-80,-332,-1,1020.47,39.7,0
"2020-02-24 02:49:35+00",8.0,10.0,,41,-87,-332,-2,1020.51,40,0
"2020-02-24 02:54:35+00",8.6,9.6,,40.9,-117,-350,-8,1020.54,39.9,0
"2020-02-24 02:59:35+00",8.1,9.1,,40.8,-111,-328,-2,1020.54,39.7,0
"2020-02-24 03:04:35+00",9.1,11.1,,40.8,-143,-359,-4,1020.49,39.6,0
"2020-02-24 03:09:35+00",9.5,11.5,,40.9,-178,-363,-5,1020.43,39.7,0
"2020-02-24 03:14:35+00",9.2,11.2,,41.1,-175,-362,0,1020.39,40,0
"2020-02-24 03:19:35+00",9.9,10.9,,41.3,-201,-383,-7,1020.44,40.1,0
"2020-02-24 03:24:35+00",9.9,10.9,,41.5,-209,-372,-8,1020.34,40.3,0
"2020-02-24 03:29:35+00",9.8,10.8,,41.6,-227,-367,-3,1020.3,40.5,0
"2020-02-24 03:34:35+00",10.0,12.0,,41.6,-251,-367,3,1020.27,40.5,0
"2020-02-24 03:39:35+00",9.7,11.7,,41.7,-262,-354,14,1020.29,40.7,0
"2020-02-24 03:44:35+00",9.6,10.6,,41.7,-265,-349,4,1020.32,40.7,0
"2020-02-24 03:49:35+00",9.3,11.3,,41.6,-261,-338,11,1020.33,40.6,0
"2020-02-24 03:54:35+00",10.2,12.2,,41.6,-285,-365,5,1020.31,40.5,0
"2020-02-24 03:59:35+00",10.0,12.0,,41.6,-274,-361,4,1020.31,40.4,0
"2020-02-24 04:04:35+00",9.7,10.7,,41.6,-253,-353,3,1020.23,40.3,0
"2020-02-24 04:09:35+00",9.2,10.2,,41.5,-227,-343,-1,1020.26,40.1,0
"2020-02-24 04:14:35+00",9.5,9.5,,41.6,-229,-357,-1,1020.15,39.9,0
"2020-02-24 04:19:35+00",10.3,10.3,,41.6,-206,-400,2,1020.1,39.6,0
"2020-02-24 04:24:35+00",10.0,11.0,,41.7,5,-724,208,1020.02,39.4,0
"2020-02-24 04:29:35+00",10.4,11.4,,41.5,-38,-697,174,1020.06,39.2,0
"2020-02-24 04:34:35+00",10.0,11.0,,41.6,75,-932,331,1019.94,39.1,0
"2020-02-24 04:39:35+00",9.5,10.5,,41.6,111,-964,360,1019.92,38.9,0
"2020-02-24 04:44:35+00",9.8,9.8,,41.7,117,-984,378,1019.86,38.5,0
"2020-02-24 04:49:35+00",9.3,10.3,,41.6,19,-772,261,1019.76,38.2,0
"2020-02-24 04:54:35+00",9.2,10.2,,41.6,46,-827,288,1019.79,37.9,0
"2020-02-24 04:59:35+00",9.5,9.5,,41.7,93,-935,337,1019.73,37.8,0
"2020-02-24 05:04:35+00",9.8,9.8,,41.7,95,-926,329,1019.82,37.8,0
"2020-02-24 05:09:35+00",9.5,10.5,,41.7,41,-823,280,1019.76,38,0
"2020-02-24 05:14:35+00",9.2,10.2,,41.7,87,-845,295,1019.75,38.1,0
"2020-02-24 05:19:35+00",9.4,9.4,,41.7,44,-776,252,1019.68,38.2,0
"2020-02-24 05:24:35+00",9.0,9.0,,42.3,27,-755,247,1019.74,38.2,0
"2020-02-24 05:29:35+00",8.3,9.3,,42.3,-47,-521,124,1019.66,38.3,0
"2020-02-24 05:34:35+00",8.4,8.4,,42.2,-47,-511,117,1019.64,38.5,0
"2020-02-24 05:39:35+00",8.3,9.3,,42.3,-33,-523,124,1019.59,38.7,0
"2020-02-24 05:44:35+00",9.5,10.5,,42.4,2,-661,175,1019.6,38.7,0
"2020-02-24 05:49:35+00",9.0,9.0,,42.3,-7,-615,155,1019.64,38.7,0
"2020-02-24 05:54:35+00",8.4,9.4,,42,-3,-553,129,1019.52,38.7,0
"2020-02-24 05:59:35+00",8.2,9.2,,41.7,-17,-455,72,1019.48,38.8,0
"2020-02-24 06:04:35+00",7.4,8.4,,41.6,19,-434,75,1019.45,39.3,0
"2020-02-24 06:09:35+00",8.0,9.0,,41.9,29,-510,90,1019.49,39.9,0
"2020-02-24 06:14:35+00",7.9,8.9,,42,1,-465,73,1019.47,40.2,0
"2020-02-24 06:19:35+00",8.2,9.2,,42.2,-28,-417,40,1019.43,40.6,0
"2020-02-24 06:24:35+00",8.6,10.6,,42.3,-14,-481,70,1019.5,40.7,0
"2020-02-24 06:29:35+00",8.1,10.1,,42.2,-44,-387,22,1019.4,40.8,0
"2020-02-24 06:34:35+00",8.9,9.9,,42.1,-13,-511,82,1019.35,40.7,0
"2020-02-24 06:39:35+00",8.2,10.2,,41.9,-3,-476,82,1019.25,40.5,0
"2020-02-24 06:44:35+00",8.2,9.2,,41.8,-38,-439,59,1019.21,40.4,0
"2020-02-24 06:49:35+00",8.2,10.2,,41.7,-15,-482,87,1019.21,40.2,0
"2020-02-24 06:54:35+00",8.5,9.5,,41.6,-3,-505,90,1019.17,40.1,0
"2020-02-24 06:59:35+00",8.8,9.8,,41.4,35,-595,129,1019.12,40,0
"2020-02-24 07:04:35+00",8.4,9.4,,41.3,32,-572,118,1018.94,40,0
"2020-02-24 07:09:35+00",8.5,9.5,,41.3,45,-567,132,1018.88,40,0
"2020-02-24 07:14:35+00",8.5,9.5,,41.3,18,-564,131,1018.91,40,0
"2020-02-24 07:19:35+00",9.2,10.2,,41.5,52,-706,201,1018.88,39.7,0
"2020-02-24 07:24:35+00",9.5,10.5,,41.6,40,-724,206,1018.88,39.3,0
"2020-02-24 07:29:35+00",9.4,10.4,,41.6,52,-745,225,1018.89,39.1,0
"2020-02-24 07:34:35+00",9.4,10.4,,41.7,101,-833,274,1018.79,38.9,0
"2020-02-24 07:39:35+00",9.2,10.2,,41.8,77,-784,252,1018.69,39,0
"2020-02-24 07:44:35+00",9.7,10.7,,41.9,36,-727,203,1018.76,39.1,0
"2020-02-24 07:49:35+00",9.6,10.6,,41.9,44,-696,177,1018.8,39.1,0
"2020-02-24 07:54:35+00",9.4,10.4,,41.6,1,-590,119,1018.66,39.2,0
"2020-02-24 07:59:35+00",9.5,10.5,,41.3,53,-692,174,1018.66,39.2,0
"2020-02-24 08:04:35+00",9.3,10.3,,41.2,43,-655,168,1018.49,39.2,0
"2020-02-24 08:09:35+00",8.3,10.3,,41.1,39,-586,143,1018.44,39.1,0
"2020-02-24 08:14:35+00",8.6,10.6,,41.2,-16,-546,106,1018.29,39,0
"2020-02-24 08:19:35+00",9.4,10.4,,41.3,-45,-523,74,1018.32,39,0
"2020-02-24 08:24:35+00",9.6,10.6,,41.4,39,-730,214,1018.29,39.1,0
"2020-02-24 08:29:35+00",8.9,9.9,,41.4,5,-628,171,1018.27,39.1,0
"2020-02-24 08:34:35+00",8.8,9.8,,41.5,79,-724,227,1018.18,39.3,0
"2020-02-24 08:39:35+00",10.2,11.2,,41.5,50,-767,227,1018.28,39.4,0
"2020-02-24 08:44:35+00",9.4,10.4,,41.5,1,-634,158,1018.27,39.6,0
"2020-02-24 08:49:35+00",8.9,9.9,,41.5,-79,-464,71,1018.22,39.6,0
"2020-02-24 08:54:35+00",9.1,10.1,,41.6,-67,-496,81,1018.24,39.7,0
"2020-02-24 08:59:35+00",9.7,10.7,,41.8,-10,-631,145,1018.17,39.8,0
"2020-02-24 09:04:35+00",8.7,10.7,,41.7,14,-599,147,1018.14,39.8,0
"2020-02-24 09:09:35+00",9.2,10.2,,41.8,24,-648,160,1018.16,39.9,0
"2020-02-24 09:14:35+00",8.9,9.9,,41.7,-15,-548,109,1018.24,39.8,0
"2020-02-24 09:19:35+00",9.2,10.2,,41.7,-8,-586,124,1018.12,39.9,0
"2020-02-24 09:24:35+00",9.0,10.0,,41.7,-78,-456,56,1018.22,39.8,0
"2020-02-24 09:29:35+00",9.6,10.6,,41.8,-118,-450,40,1018.2,39.8,0
"2020-02-24 09:34:35+00",8.7,9.7,,41.8,-113,-400,29,1018.18,39.7,0
"2020-02-24 09:39:35+00",8.4,9.4,,41.7,-136,-383,37,1018.21,39.7,0
"2020-02-24 09:44:35+00",7.8,8.8,,41.6,-147,-312,4,1018.12,39.6,0
"2020-02-24 09:49:35+00",8.4,8.4,,41.5,-146,-342,11,1018.13,39.4,0
"2020-02-24 09:54:35+00",8.2,9.2,,41.5,-150,-310,-2,1018.16,39.3,0
"2020-02-24 09:59:35+00",7.9,8.9,,41.3,-154,-299,0,1018.21,39,0
"2020-02-24 10:04:35+00",7.8,8.8,,41.2,-158,-297,-5,1018.29,38.7,0
"2020-02-24 10:09:35+00",8.1,8.1,,41.2,-154,-308,-1,1018.2,38.5,0
"2020-02-24 10:14:35+00",7.8,8.8,,41.2,-139,-298,-4,1018.26,38.3,0
"2020-02-24 10:19:35+00",8.3,9.3,,41.2,-168,-313,-5,1018.27,38.2,0
"2020-02-24 10:24:35+00",8.4,8.4,,41.2,-164,-320,1,1018.28,38.1,0
"2020-02-24 10:29:35+00",8.7,9.7,,41.3,-144,-350,4,1018.36,38,0
"2020-02-24 10:34:35+00",8.7,9.7,,41.2,-129,-366,13,1018.3,38,0
"2020-02-24 10:39:35+00",8.3,9.3,,41.3,-137,-338,6,1018.34,38,0
"2020-02-24 10:44:35+00",7.5,7.5,,41.4,-119,-302,6,1018.34,38,0
"2020-02-24 10:49:35+00",6.5,7.5,,41.3,-92,-254,-5,1018.35,38.3,0
"2020-02-24 10:54:35+00",6.2,6.2,,41.3,-113,-237,-3,1018.25,38.4,0
"2020-02-24 10:59:35+00",6.2,6.2,,41.4,-117,-239,1,1018.27,38.4,0
"2020-02-24 11:04:35+00",6.5,7.5,,41.4,-122,-252,5,1018.33,38.4,0
"2020-02-24 11:09:35+00",5.9,5.9,,41.5,-145,-208,6,1018.42,38.2,0
"2020-02-24 11:14:35+00",4.4,4.4,,41.2,-136,-154,0,1018.37,37.8,0
"2020-02-24 11:19:35+00",4.4,5.4,,41,-133,-130,2,1018.31,37.5,0
"2020-02-24 11:24:35+00",3.5,3.5,,40.8,-144,-72,-1,1018.32,37.3,0
"2020-02-24 11:29:35+00",3.5,3.5,,40.9,-139,-31,-3,1018.41,37,0
"2020-02-24 11:34:35+00",3.2,3.2,,41,-132,13,0,1018.49,36.9,0
"2020-02-24 11:39:35+00",2.9,3.9,,41,-117,43,0,1018.37,36.7,0
"2020-02-24 11:44:35+00",3.0,3.0,,40.9,-111,57,4,1018.37,36.8,0
"2020-02-24 11:49:35+00",3.8,3.8,,40.9,-155,2,2,1018.36,36.8,0
"2020-02-24 11:54:35+00",3.9,3.9,,40.8,1,-306,163,1018.34,36.9,0
"2020-02-24 11:59:35+00",3.8,3.8,,40.6,-2,-295,154,1018.41,37.1,0
"2020-02-24 12:04:35+00",3.7,4.7,,40.7,-72,-160,69,1018.44,37.2,0
"2020-02-24 12:09:35+00",3.0,3.0,,40.8,12,-269,129,1018.4,37.4,0
"2020-02-24 12:14:35+00",3.0,3.0,,41,199,-587,311,1018.3,37.8,0
"2020-02-24 12:19:35+00",3.4,3.4,,41.1,359,-870,484,1018.31,38.4,0
"2020-02-24 12:24:35+00",3.7,4.7,,41.1,491,-1139,625,1018.32,39.1,0
"2020-02-24 12:29:35+00",4.6,5.6,,41.3,655,-1497,818,1018.27,39.8,0
"2020-02-24 12:34:35+00",3.9,3.9,,41.4,435,-1063,580,1018.3,40.5,0
"2020-02-24 12:39:35+00",3.3,4.3,,41.5,287,-756,409,1018.32,41.3,0
"2020-02-24 12:44:35+00",3.3,4.3,,41.7,220,-638,343,1018.28,42.1,0
"2020-02-24 12:49:35+00",3.4,4.4,,42.1,-62,-179,78,1018.32,42.9,0
"2020-02-24 12:54:35+00",3.2,4.2,,42.4,201,-581,327,1018.25,43.8,0
"2020-02-24 12:59:35+00",4.1,6.1,,42.7,115,-537,277,1018.24,44.7,0
"2020-02-24 13:04:35+00",4.1,5.1,,42.9,313,-869,472,1018.4,45.7,0
"2020-02-24 13:09:35+00",4.8,5.8,,43.2,552,-1357,730,1018.46,46.7,0
"2020-02-24 13:14:35+00",4.8,5.8,,43.3,299,-930,480,1018.31,47.5,0
"2020-02-24 13:19:35+00",6.0,7.0,,43.5,575,-1503,782,1018.31,48.1,0
"2020-02-24 13:24:35+00",5.0,6.0,,43.6,575,-1432,736,1018.29,48.5,0
"2020-02-24 13:29:35+00",5.3,5.3,,43.6,181,-746,369,1018.2,48.2,0
"2020-02-24 13:34:35+00",4.6,5.6,,43.7,479,-1228,640,1018.2,48.2,0
"2020-02-24 13:39:35+00",5.0,6.0,,43.9,646,-1526,791,1017.99,48,0
"2020-02-24 13:44:35+00",4.8,5.8,,44.1,1032,-2179,1173,1018,48.5,0.9
"2020-02-24 13:49:35+00",5.7,6.7,,44.3,1175,-2526,1340,1018.03,48.9,2
"2020-02-24 13:54:35+00",6.2,7.2,,44.5,1158,-2532,1329,1018.02,49.3,2.9
"2020-02-24 13:59:35+00",5.3,6.3,,44.5,904,-2008,1057,1018.06,49.3,2.8
"2020-02-24 14:04:35+00",5.6,6.6,,44.6,1068,-2334,1238,1018.14,49.5,9.4
"2020-02-24 14:09:35+00",5.7,6.7,,44.8,689,-1662,825,1018.08,49.3,10.8
"2020-02-24 14:14:35+00",5.9,6.9,,44.9,1035,-2281,1184,1018.06,49.2,20.2
"2020-02-24 14:19:35+00",6.6,7.6,,45.1,1063,-2387,1238,1018.18,49.3,27.9
"2020-02-24 14:24:35+00",5.9,6.9,,45.4,1092,-2383,1282,1018.2,49.7,36.8
"2020-02-24 14:29:35+00",6.3,7.3,,45.6,1207,-2616,1366,1018.27,50.2,33.8
"2020-02-24 14:34:35+00",6.5,7.5,,46,817,-1922,949,1018.24,50,46.5
"2020-02-24 14:39:35+00",6.4,7.4,,46,806,-1904,917,1018.28,49.6,54
"2020-02-24 14:44:35+00",5.6,6.6,,46.3,1108,-2405,1242,1018.3,49.5,59.8
"2020-02-24 14:49:35+00",5.3,6.3,,46.6,995,-2173,1123,1018.21,50,68.1
"2020-02-24 14:54:35+00",5.6,6.6,,46.9,1028,-2240,1144,1018.13,50.5,73
"2020-02-24 14:59:35+00",5.9,6.9,,47.1,937,-2104,1069,1018.05,50.9,80.5
"2020-02-24 15:04:35+00",6.8,7.8,,47.4,1142,-2540,1290,1017.99,51.6,85.7
"2020-02-24 15:09:35+00",5.9,6.9,,47.7,1102,-2396,1206,1017.99,51.5,85.3
"2020-02-24 15:14:35+00",5.9,6.9,,47.9,1003,-2224,1165,1017.97,51.8,82.1
"2020-02-24 15:19:35+00",6.8,7.8,,48.1,970,-2246,1158,1017.85,52.5,61.2
"2020-02-24 15:24:35+00",6.0,7.0,,48.3,961,-2166,1105,1017.88,52.4,110.3
"2020-02-24 15:29:35+00",5.0,6.0,,48.7,559,-1340,653,1017.78,52.8,124.2
"2020-02-24 15:34:35+00",3.3,4.3,,49.2,182,-595,306,1017.63,53.1,98.7
"2020-02-24 15:39:35+00",3.8,4.8,,49.5,258,-750,341,1017.48,53.5,96.4
"2020-02-24 15:44:35+00",4.3,5.3,,49.8,366,-981,474,1017.24,53.5,57.4
"2020-02-24 15:49:35+00",4.4,5.4,,50.2,276,-859,441,1017.29,53.5,81.6
"2020-02-24 15:54:35+00",3.6,5.6,,50.6,454,-921,502,1017.31,53.5,102.3
"2020-02-24 15:59:35+00",6.1,7.1,,50.2,1026,-1881,893,1017.31,52.9,121.2
"2020-02-24 16:04:35+00",5.9,6.9,,49.5,1157,-2176,1074,1017.2,52.2,66.2
"2020-02-24 16:09:35+00",6.6,7.6,,49.4,1202,-2240,1091,1017.22,51.9,110.3
"2020-02-24 16:14:35+00",6.5,7.5,,49.5,1327,-2475,1250,1017.26,51.8,134.2
"2020-02-24 16:19:35+00",6.5,7.5,,50,1217,-2305,1147,1017.28,51.8,88.9
"2020-02-24 16:24:35+00",7.4,8.4,,49.6,1335,-2558,1229,1017.28,51.4,113
"2020-02-24 16:29:35+00",6.9,8.9,,50.1,1218,-2318,1097,1017.23,52.1,122.2
"2020-02-24 16:34:35+00",8.0,9.0,,50.2,1671,-3058,1515,1017.17,52.3,83.9
"2020-02-24 16:39:35+00",10.3,11.3,,49.3,1858,-3468,1697,1017.19,51.7,130.7
"2020-02-24 16:44:35+00",10.0,12.0,,49,1839,-3482,1676,1017.18,51.2,156.7
"2020-02-24 16:49:35+00",9.5,11.5,,49.3,1827,-3439,1663,1017.11,51.4,117.3
"2020-02-24 16:54:35+00",7.4,8.4,,49.8,1485,-2810,1401,1017.16,51.8,118.1
"2020-02-24 16:59:35+00",8.8,10.8,,49.6,1640,-3063,1523,1017.04,51.6,93
"2020-02-24 17:04:35+00",8.8,10.8,,49.2,1800,-3407,1676,1017,51.4,136.6
"2020-02-24 17:09:35+00",8.7,10.7,,49.4,1560,-2991,1453,1016.98,51.3,137
"2020-02-24 17:14:35+00",7.3,10.3,,50.2,1260,-2443,1221,1016.95,52.1,116.1
"2020-02-24 17:19:35+00",11.3,12.3,,49.9,1810,-3566,1673,1016.8,51.6,2.6
"2020-02-24 17:24:35+00",7.0,10.0,,50,1028,-2054,984,1016.89,51.5,54
"2020-02-24 17:29:35+00",6.5,7.5,,50.4,855,-1711,795,1016.77,51.9,1.8
"2020-02-24 17:34:35+00",5.1,7.1,,51.1,658,-1306,681,1016.69,52.7,107
"2020-02-24 17:39:35+00",7.5,9.5,,50.9,994,-1963,909,1016.54,52.7,1.6
"2020-02-24 17:44:35+00",7.7,8.7,,50.7,886,-1834,817,1016.46,52.4,41.2
"2020-02-24 17:49:35+00",9.2,10.2,,50,1480,-2848,1343,1016.37,52.2,34.2
"2020-02-24 17:54:35+00",8.3,10.3,,50,1553,-2997,1453,1016.34,51.8,7.5
"2020-02-24 17:59:35+00",9.7,11.7,,49.6,1872,-3566,1743,1016.23,51.2,24.7
"2020-02-24 18:04:35+00",8.7,10.7,,49.8,1614,-3101,1565,1016.22,51.3,63.4
"2020-02-24 18:09:35+00",9.7,11.7,,50,1648,-3178,1554,1016.16,51.6,46.2
"2020-02-24 18:14:35+00",9.6,11.6,,50.2,1483,-2972,1411,1016.06,51.7,111.4
"2020-02-24 18:19:35+00",9.3,10.3,,50.1,1605,-3080,1455,1015.86,51.7,2.1
"2020-02-24 18:24:35+00",7.2,10.2,,50.2,1399,-2688,1319,1015.87,51.5,0
"2020-02-24 18:29:35+00",8.8,9.8,,49.4,1597,-3058,1471,1015.94,50.8,0
"2020-02-24 18:34:35+00",8.2,10.2,,49.1,1710,-3213,1596,1016.05,50.3,0
"2020-02-24 18:39:35+00",9.2,11.2,,49.1,1837,-3471,1709,1015.89,50.3,0
"2020-02-24 18:44:35+00",11.6,14.6,,48.7,1724,-3267,1557,1015.94,50,0
"2020-02-24 18:49:35+00",12.3,15.3,,47.8,1571,-3179,1445,1015.92,49.1,0
"2020-02-24 18:54:35+00",10.9,12.9,,47.6,1265,-2630,1154,1015.87,48.5,0
"2020-02-24 18:59:35+00",8.1,10.1,,47.8,1279,-2589,1231,1015.79,48.7,0
"2020-02-24 19:04:35+00",9.8,12.8,,48.3,1367,-2761,1291,1015.78,49.2,0
"2020-02-24 19:09:35+00",7.9,9.9,,48.3,1329,-2675,1281,1015.79,49.1,0
"2020-02-24 19:14:35+00",6.7,9.7,,49,1354,-2684,1343,1015.74,49.8,0.6
"2020-02-24 19:19:35+00",6.5,8.5,,49.6,1189,-2359,1152,1015.64,50.5,0
"2020-02-24 19:24:35+00",6.6,8.6,,50,1124,-2237,1086,1015.49,50.8,0
"2020-02-24 19:29:35+00",6.3,8.3,,50.3,875,-1801,856,1015.4,51,0
"2020-02-24 19:34:35+00",6.1,7.1,,50,1092,-2128,1022,1015.41,50.9,0
"2020-02-24 19:39:35+00",6.2,7.2,,49.7,1122,-2196,1077,1015.48,50.5,0
"2020-02-24 19:44:35+00",7.8,9.8,,49.6,1442,-2797,1353,1015.37,50.4,0
"2020-02-24 19:49:35+00",6.9,10.9,,49.4,1546,-3020,1546,1015.31,50.3,0
"2020-02-24 19:54:35+00",7.5,11.5,,50,1569,-3097,1533,1015.24,50.7,0
"2020-02-24 19:59:35+00",8.8,12.8,,49.9,1567,-3136,1552,1015.24,50.6,0
"2020-02-24 20:04:35+00",7.0,9.0,,49.5,1480,-2842,1443,1015.26,50.2,0
"2020-02-24 20:09:35+00",10.8,12.8,,49.1,1772,-3674,1778,1015.27,49.8,0
"2020-02-24 20:14:35+00",9.0,13.0,,48.6,1760,-3590,1824,1015.26,49.3,0
"2020-02-24 20:19:35+00",7.3,9.3,,48.5,1537,-3090,1560,1015.29,49.2,0
"2020-02-24 20:24:35+00",11.2,13.2,,48.3,1762,-3690,1784,1015.24,49,0
"2020-02-24 20:29:35+00",9.1,12.1,,48.4,1580,-3203,1604,1015.23,49,0
"2020-02-24 20:34:35+00",10.2,12.2,,48.1,1341,-2796,1332,1015.16,48.7,0
"2020-02-24 20:39:35+00",8.2,11.2,,47.7,840,-1887,853,1015.14,48.2,0
"2020-02-24 20:44:35+00",12.4,14.4,,47.5,1505,-3336,1579,1015.11,48,0
"2020-02-24 20:49:35+00",12.2,16.2,,47.2,1390,-3164,1470,1015.05,47.8,0
"2020-02-24 20:54:35+00",12.1,15.1,,47,1046,-2505,1133,1014.97,47.4,0
"2020-02-24 20:59:35+00",12.5,15.5,,46.9,954,-2364,1041,1014.95,47.2,0
"2020-02-24 21:04:35+00",9.5,12.5,,46.7,467,-1289,489,1014.92,47,0
"2020-02-24 21:09:35+00",9.8,12.8,,46.4,178,-785,220,1014.9,46.8,0
"2020-02-24 21:14:35+00",8.4,10.4,,46.3,96,-539,110,1014.79,46.6,0
"2020-02-24 21:19:35+00",9.5,11.5,,46.2,-147,-203,-108,1014.71,46.4,0
"2020-02-24 21:24:35+00",7.8,10.8,,46.2,-68,-307,-10,1014.8,46.4,0
"2020-02-24 21:29:35+00",7.7,10.7,,46.1,-77,-304,-24,1014.78,46.3,0
"2020-02-24 21:34:35+00",7.3,9.3,,46.1,-210,-75,-109,1014.67,46.2,0
"2020-02-24 21:39:35+00",11.1,14.1,,46,109,-849,206,1014.65,46.1,0
"2020-02-24 21:44:35+00",9.7,11.7,,46,2,-586,104,1014.61,46.1,0
"2020-02-24 21:49:35+00",9.2,11.2,,45.9,-177,-151,-169,1014.63,46,0
"2020-02-24 21:54:35+00",8.9,11.9,,45.9,-256,-11,-217,1014.69,45.9,0
"2020-02-24 21:59:35+00",8.0,11.0,,45.7,-59,-324,6,1014.72,45.8,0
"2020-02-24 22:04:35+00",8.6,11.6,,45.7,-306,119,-264,1014.67,45.7,0
"2020-02-24 22:09:35+00",8.0,9.0,,45.6,-364,211,-299,1014.61,45.6,0
"2020-02-24 22:14:35+00",10.4,13.4,,45.6,-331,74,-306,1014.65,45.5,0
"2020-02-24 22:19:35+00",10.2,15.2,,45.7,-408,180,-336,1014.58,45.5,0
"2020-02-24 22:24:35+00",10.8,14.8,,45.6,-337,-30,-248,1014.5,45.5,0
"2020-02-24 22:29:35+00",10.8,14.8,,45.6,-101,-432,10,1014.53,45.5,0
"2020-02-24 22:34:35+00",10.3,15.3,,45.5,-186,-232,-76,1014.44,45.4,0
"2020-02-24 22:39:35+00",11.8,15.8,,45.6,-284,-148,-192,1014.38,45.4,0
"2020-02-24 22:44:35+00",10.5,14.5,,45.6,-281,-173,-140,1014.47,45.3,0
"2020-02-24 22:49:35+00",9.2,13.2,,45.6,-188,-198,-48,1014.71,45.2,0
"2020-02-24 22:54:35+00",11.1,13.1,,45.6,-79,-649,135,1014.89,45.2,0
"2020-02-24 22:59:35+00",13.9,14.9,,45.8,344,-1588,599,1014.95,45.3,0
"2020-02-24 23:04:35+00",11.4,13.4,,45.9,590,-1930,847,1015.04,45.3,0
"2020-02-24 23:09:35+00",11.7,13.7,,45.9,512,-1827,776,1015.12,45.4,0
"2020-02-24 23:14:35+00",10.5,11.5,,45.9,466,-1677,738,1015.07,45.3,0
"2020-02-24 23:19:35+00",11.9,13.9,,46.1,817,-2404,1111,1015.27,45.3,0
"2020-02-24 23:24:35+00",11.3,13.3,,46.4,788,-2325,1109,1015.2,45.5,0
"2020-02-24 23:29:35+00",11.7,14.7,,46.6,937,-2640,1266,1015.3,45.7,0
"2020-02-24 23:34:35+00",10.1,12.1,,46.6,1002,-2635,1271,1015.34,45.9,0
"2020-02-24 23:39:35+00",10.0,12.0,,46.6,407,-1517,694,1015.32,45.9,0
"2020-02-24 23:44:35+00",10.0,13.0,,46.8,829,-2275,1101,1015.32,46.1,0
"2020-02-24 23:49:35+00",11.4,13.4,,47.3,1470,-3537,1764,1015.3,46.4,0
"2020-02-24 23:54:35+00",11.3,13.3,,47.5,1324,-3212,1581,1015.35,46.7,0
"2020-02-24 23:59:35+00",12.2,13.2,,47.7,1363,-3375,1641,1015.37,46.9,0
